Location: ?
(35.4064°N, 139.3593°E)
Time: 18:08:42
(UTC+00:00)

Hubble Space Telescope - Pass Details

Date: 09 December 2025
Orbit: 479 x 482 km, 28.5° (Epoch: 12 January)

Event Time Altitude Azimuth Distance (km) Brightness Sun altitude
Rises 09:44:36 0° 238° (WSW) 2,524 5.3 -26.7°
Reaches altitude 10° 09:47:06 10° 224° (SW) 1,645 3.9 -27.2°
Enters shadow 09:48:33 18° 205° (SSW) 1,242 2.9 -27.5°
